Regional Weather Roundup
Issued by NWS

Home | Current Version | Previous Version | Graphics & Text | Print | Product List | Glossary On
Versions: 1 2 3 4 5 6 7 8 9 10 11 12 13 14 15 16 17 18 19 20 21 22 23 24 25 26 27 28 29 30 31 32 33 34 35 36 37 38 39 40 41 42 43 44 45 46 47 48 49 50
000
ASUS43 KTOP 251108
RWRKS

WEATHER ROUNDUP FOR KANSAS
NATIONAL WEATHER SERVICE GOODLAND KS
600 AM CDT SAT OCT 25 2014

NOTE:  "FAIR" INDICATES FEW OR NO CLOUDS BELOW 12,000 FEET WITH NO
SIGNIFICANT WEATHER AND/OR OBSTRUCTIONS TO VISIBILITY.

KSZ001>006-013>018-027>032-041>047-251200-
NORTHWEST KANSAS

CITY           SKY/WX    TMP DP  RH WIND       PRES   REMARKS
GOODLAND       CLEAR     45  34  65 W6        30.12S
HAYS           CLEAR     48  43  81 W5        30.05S
HILL CITY      CLEAR     45  40  82 CALM      30.06R
RUSSELL        CLEAR     50  49  96 S5        30.03S
$$

KSZ061>065-074>080-084>089-251200-
SOUTHWEST KANSAS

CITY           SKY/WX    TMP DP  RH WIND       PRES   REMARKS
DODGE CITY     CLEAR     52  46  80 SW8       30.08R
ELKHART          N/A     58  37  45 W9          N/A
GARDEN CITY    CLEAR     52  42  69 W6        30.08R
GREAT BEND       N/A     48  43  81 CALM      30.06R VSB 1/2
LIBERAL        CLEAR     48  37  66 W7        30.10F
PRATT          CLEAR     54  54 100 W5        30.06R FOG
$$

KSZ066>073-081>083-090>101-251200-
SOUTHEAST KANSAS

CITY           SKY/WX    TMP DP  RH WIND       PRES   REMARKS
CHANUTE        FOG       55  55 100 CALM      30.05R VSB 1/4
COFFEYVILLE    CLEAR     58  58 100 S5        30.05R FOG
HUTCHINSON     FOG       53  51  93 CALM      30.05R VSB 1/4
MEDICINE LODGE   N/A     52  51  97 N3        30.03S
NEWTON         CLEAR     57  54  88 NE5       30.07R
PARSONS        CLEAR     59  59 100 S5        30.05S FOG
WICHITA INTL   FOG       55  53  93 CALM      30.03S VSB 1/4
WICHITA JABRA  CLEAR     56  56 100 S5        30.04R FOG
WICHITA MCCONL CLEAR     59  59 100 SE3       30.04S
WINFIELD       CLEAR     59  58  96 SE3       30.05R
$$

KSZ007>012-019>026-033>040-048>060-102>105-251200-
NORTHEAST KANSAS

CITY           SKY/WX    TMP DP  RH WIND       PRES   REMARKS
CONCORDIA      CLEAR     51  50  96 SE3       30.04R
EMPORIA        FOG       53  53 100 S6        30.04R VSB 1/4
LAWRENCE       FOG       49  48  97 W5        30.03S VSB 1/2
MANHATTAN      FOG       53  53 100 CALM      30.03R VSB<1/4
MARYSVILLE     CLEAR     46  46 100 CALM      30.04S FOG
OLATHE IND     CLEAR     55  55 100 CALM      30.04R FOG
OLATHE EXE     CLEAR     58  58 100 NW5       30.03R FOG
SALINA         FOG       56  54  93 S3        30.03S VSB 3/4
TOPEKA BILLARD FOG       53  53 100 CALM      30.04R VSB 1/4
TOPEKA FORBES  CLEAR     54  53  97 CALM      30.03R FOG
$$



USA.gov is the U.S. government's official web portal to all federal, state and local government web resources and services.